| time (UTC) | temp F | wind direction | speed MPH | gust MPH | rain 1hr in | rain 24hr in | rain mn in | humidity % | barometer mb |
| 20260504214611 | 55 | 148 | 9.0 | 16.0 | 0.00 | 0.00 | 0.00 | 33 | 1016.8 |
| 20260504213611 | 53 | 199 | 6.0 | 10.0 | 0.00 | 0.00 | 0.00 | 36 | 1016.9 |
| 20260504212610 | 52 | 206 | 7.0 | 12.0 | 0.00 | 0.00 | 0.00 | 37 | 1017.3 |
| 20260504210612 | 51 | 179 | 9.0 | 12.0 | 0.00 | 0.00 | 0.00 | 39 | 1017.2 |
| 20260504205711 | 53 | 187 | 9.0 | 13.0 | 0.00 | 0.00 | 0.00 | 34 | 1017.4 |
| 20260504204709 | 57 | 170 | 8.0 | 13.0 | 0.00 | 0.00 | 0.00 | 28 | 1017.5 |
| 20260504201810 | 57 | 72 | 1.0 | 4.0 | 0.00 | 0.00 | 0.00 | 32 | 1016.6 |
| 20260504200910 | 58 | 24 | 2.0 | 3.0 | 0.00 | 0.00 | 0.00 | 34 | 1016.9 |
| 20260504195910 | 56 | 65 | 2.0 | 5.0 | 0.00 | 0.00 | 0.00 | 37 | 1017.2 |
| 20260504195009 | 55 | 9 | 6.0 | 9.0 | 0.00 | 0.00 | 0.00 | 40 | 1017.6 |
| 20260504194012 | 54 | 325 | 3.0 | 5.0 | 0.00 | 0.00 | 0.00 | 41 | 1017.6 |
| 20260504193010 | 52 | 74 | 4.0 | 8.0 | 0.00 | 0.00 | 0.00 | 44 | 1018.0 |
| 20260504192012 | 49 | 12 | 7.0 | 15.0 | 0.00 | 0.00 | 0.00 | 48 | 1018.3 |
| 20260504191009 | 48 | 155 | 6.0 | 10.0 | 0.00 | 0.00 | 0.00 | 52 | 1018.8 |
| 20260504190010 | 49 | 192 | 13.0 | 20.0 | 0.00 | 0.00 | 0.00 | 50 | 1018.9 |
| 20260504185011 | 50 | 179 | 14.0 | 20.0 | 0.00 | 0.00 | 0.00 | 46 | 1019.0 |
| 20260504184011 | 52 | 172 | 14.0 | 21.0 | 0.00 | 0.00 | 0.00 | 39 | 1018.5 |
| 20260504183012 | 56 | 172 | 9.0 | 20.0 | 0.00 | 0.00 | 0.00 | 31 | 1018.2 |
| 20260504182012 | 58 | 175 | 8.0 | 12.0 | 0.00 | 0.00 | 0.00 | 28 | 1017.6 |
| 20260504181109 | 57 | 181 | 5.0 | 7.0 | 0.00 | 0.00 | 0.00 | 27 | 1017.6 |
| 20260504180110 | 56 | 201 | 3.0 | 6.0 | 0.00 | 0.00 | 0.00 | 29 | 1017.8 |
| 20260504175112 | 55 | 179 | 5.0 | 7.0 | 0.00 | 0.00 | 0.00 | 31 | 1017.9 |
| 20260504173127 | 53 | 128 | 5.0 | 8.0 | 0.00 | 0.00 | 0.00 | 30 | 1018.5 |
| 20260504170209 | 55 | 165 | 9.0 | 13.0 | 0.00 | 0.00 | 0.00 | 29 | 1018.5 |
| 20260504150810 | 48 | 168 | 8.0 | 12.0 | 0.00 | 0.00 | 0.00 | 38 | 1019.4 |
| 20260504141009 | 45 | 123 | 4.0 | 8.0 | 0.00 | 0.00 | 0.00 | 42 | 1019.0 |
| 20260504130110 | 38 | 203 | 3.0 | 4.0 | 0.00 | 0.00 | 0.00 | 48 | 1018.6 |
| 20260504120310 | 37 | 173 | 5.0 | 7.0 | 0.00 | 0.00 | 0.00 | 48 | 1018.1 |
| 20260504110511 | 37 | 165 | 5.0 | 7.0 | 0.00 | 0.00 | 0.00 | 47 | 1018.5 |
| 20260504081811 | 38 | 158 | 4.0 | 6.0 | 0.00 | 0.00 | 0.00 | 46 | 1019.3 |
| 20260504080910 | 38 | 166 | 6.0 | 7.0 | 0.00 | 0.00 | 0.00 | 45 | 1019.3 |
| 20260504060111 | 39 | 4 | 3.0 | 5.0 | 0.00 | 0.00 | 0.00 | 47 | 1020.6 |
| 20260504050324 | 40 | 182 | 6.0 | 10.0 | 0.00 | 0.00 | 0.00 | 46 | 1020.9 |
| 20260504043423 | 41 | 201 | 3.0 | 4.0 | 0.00 | 0.00 | 0.00 | 45 | 1021.5 |
| 20260504042424 | 41 | 153 | 5.0 | 6.0 | 0.00 | 0.00 | 0.00 | 45 | 1021.5 |
| 20260504041424 | 41 | 180 | 4.0 | 7.0 | 0.00 | 0.00 | 0.00 | 45 | 1021.5 |
| 20260504040524 | 42 | 160 | 6.0 | 10.0 | 0.00 | 0.00 | 0.00 | 45 | 1021.6 |
| 20260504035526 | 42 | 181 | 2.0 | 3.0 | 0.00 | 0.00 | 0.00 | 44 | 1021.5 |
| 20260504034526 | 42 | 173 | 4.0 | 6.0 | 0.00 | 0.00 | 0.00 | 44 | 1021.5 |
| 20260504033524 | 42 | 186 | 4.0 | 6.0 | 0.00 | 0.00 | 0.00 | 44 | 1021.5 |
| 20260504032526 | 43 | 162 | 5.0 | 7.0 | 0.00 | 0.00 | 0.00 | 44 | 1021.5 |
| 20260504030627 | 44 | 175 | 6.0 | 8.0 | 0.00 | 0.00 | 0.00 | 43 | 1021.5 |
| 20260504025624 | 44 | 165 | 3.0 | 5.0 | 0.00 | 0.00 | 0.00 | 41 | 1021.5 |
| 20260504023725 | 46 | 166 | 3.0 | 5.0 | 0.00 | 0.00 | 0.00 | 40 | 1021.5 |
| 20260504022723 | 47 | 165 | 4.0 | 7.0 | 0.00 | 0.00 | 0.00 | 38 | 1021.5 |
| 20260504014823 | 49 | 106 | 3.0 | 6.0 | 0.00 | 0.00 | 0.00 | 34 | 1021.7 |
| 20260504013840 | 50 | 7 | 3.0 | 5.0 | 0.00 | 0.00 | 0.00 | 31 | 1022.0 |
| 20260504012924 | 51 | 82 | 2.0 | 5.0 | 0.00 | 0.00 | 0.00 | 30 | 1021.7 |
| 20260504010926 | 52 | 85 | 8.0 | 14.0 | 0.00 | 0.00 | 0.00 | 28 | 1021.4 |
| 20260504005024 | 53 | 256 | 1.0 | 5.0 | 0.00 | 0.00 | 0.00 | 26 | 1021.2 |
| 20260504004123 | 54 | 332 | 3.0 | 4.0 | 0.00 | 0.00 | 0.00 | 26 | 1021.0 |
| 20260504003124 | 54 | 353 | 2.0 | 4.0 | 0.00 | 0.00 | 0.00 | 27 | 1020.9 |
| 20260504002223 | 54 | 22 | 0.0 | 0.0 | 0.00 | 0.00 | 0.00 | 26 | 1020.8 |
| 20260504000324 | 55 | 147 | 4.0 | 7.0 | 0.00 | 0.00 | 0.00 | 23 | 1021.0 |
| 20260503235423 | 55 | 193 | 1.0 | 4.0 | 0.00 | 0.00 | 0.00 | 24 | 1020.9 |
| 20260503232425 | 57 | 104 | 3.0 | 6.0 | 0.00 | 0.00 | 0.00 | 24 | 1021.2 |
| 20260503231423 | 56 | 93 | 2.0 | 5.0 | 0.00 | 0.00 | 0.00 | 25 | 1021.2 |
| 20260503230423 | 57 | 29 | 3.0 | 10.0 | 0.00 | 0.00 | 0.00 | 22 | 1021.3 |
| 20260503225442 | 59 | 202 | 3.0 | 5.0 | 0.00 | 0.00 | 0.00 | 19 | 1021.4 |
| 20260503223523 | 58 | 15 | 5.0 | 7.0 | 0.00 | 0.00 | 0.00 | 21 | 1021.0 |
| 20260503221522 | 57 | 346 | 7.0 | 13.0 | 0.00 | 0.00 | 0.00 | 22 | 1021.1 |
| 20260503220526 | 58 | 354 | 7.0 | 12.0 | 0.00 | 0.00 | 0.00 | 23 | 1021.5 |
| 20260503215624 | 57 | 109 | 3.0 | 5.0 | 0.00 | 0.00 | 0.00 | 23 | 1021.8 |